sat.trackr.live / text

‹ back to catalog

WGS F6 (USA 244)

NORAD 39222 · 2013-041A

PAYLOAD ACTIVE UNKNOWN

§ Identity

Operator
Country
US
Launch date
2013-08-08
Launch site
AFETR
Launch vehicle
Mass (kg)
RCS (m²)
35.80

Purposes: comms

External: N2YO · Heavens-Above · Gunter

§ Orbital elements

Epoch: 2026-05-25T03:05:49.034400Z

Period
1,436.09 min
Inclination
0.0172°
Eccentricity
0.0000244
Mean motion
1.00272019 rev/d
Perigee alt
35,785.5 km
Apogee alt
35,787.6 km
Semi-major
42,164.7 km
B*
0.0000e+0
RAAN
334.0633°
Arg perigee
49.2657°
Mean anomaly
130.6546°
Rev number
4,583

§ Raw data

WGS F6 (USA 244)1 39222U 13041A   26145.12903975  .00000087  00000+0  00000+0 0  99942 39222   0.0172 334.0633 0000244  49.2657 130.6546  1.00272019 45832

JSON: /api/v1/satellites/39222 · /tle

For live sub-satellite position, see the globe view (requires WebGL).

§ Visibility from observer

Set your observer location to see the next 7 days of passes ≥ 10°. The values pass through the URL so the page stays shareable.

No JS? Fill the form by hand. The geolocation button needs JavaScript.